Flag for U.S.A. Weather past 2 weeks in Shiprock, New Mexico, U.S.A.

Now
32 °F

Overcast.


Feels Like: 32 °F
Forecast: 26 / 45 °F
Wind: No wind

Location: Four Corners Regional Airport

Current Time: Dec 20, 2014 at 11:00:31 AM

Latest Report: Dec 20, 2014 at 9:53 AM


Visibility: 10 mi

Pressure: 30.26 "Hg

Humidity: 82%

Dew point: 27 °F

Location of ShiprockLocation

Historic Weather in Shiprock — Graph

°F

Shiprock temperature yesterday

Maximum temperature yesterday: 40 °F (at 1:53 PM)
Minimum temperature yesterday: 22 °F (at 7:01 AM)
Average temperature yesterday: 29 °F

Past Weeks' High & Low Weather Summary

 TemperatureHumidityPressure
High56 °F (Dec 12, 1:53 PM)100% (Dec 9, 8:53 PM)30.46 "Hg (Dec 9, 8:53 PM)
Low22 °F (Dec 19, 7:01 AM)38% (Dec 11, 1:53 PM)29.86 "Hg (Dec 13, 12:53 PM)
Average36 °F78%30.21 "Hg
* Reported Dec 5 9:53 AM — Dec 20 9:53 AM, Shiprock, Weather by CustomWeather, © 2014

Note: Actual official high and low records may vary slightly from our data, if they occured in-between our weather recording intervals... More about our weather records

Advertising

Shiprock weather history for previous 24 hours

 ConditionsComfort  
Time TempWeatherWind HumidityBarometerVisibility
9:53 AM
Dec 20
32 °FOvercast.No wind82%30.26 "Hg10 mi
8:53 AM29 °FLow clouds.8 mph93%30.25 "Hg9 mi
7:53 AM28 °FLow clouds.No wind93%30.27 "Hg8 mi
6:53 AM28 °FLow clouds.6 mph89%30.24 "Hg7 mi
5:53 AM26 °FLow clouds.No wind88%30.24 "Hg10 mi
4:53 AM26 °FLow clouds.3 mph88%30.24 "Hg10 mi
3:53 AM25 °FPassing clouds.5 mph92%30.24 "Hg10 mi
2:53 AM25 °FPassing clouds.No wind88%30.24 "Hg10 mi
1:53 AM24 °FClear.5 mph91%30.25 "Hg10 mi
12:53 AM24 °FClear.6 mph91%30.26 "Hg10 mi
11:53 PM
Dec 19
26 °FClear.No wind84%30.29 "Hg10 mi
10:53 PM28 °FClear.3 mph85%30.28 "Hg10 mi
9:53 PM31 °FClear.No wind79%30.27 "Hg10 mi
8:53 PM31 °FClear.No wind79%30.28 "Hg10 mi
7:53 PM31 °FClear.6 mph79%30.28 "Hg10 mi
6:53 PM33 °FClear.6 mph75%30.28 "Hg10 mi
5:53 PM35 °FClear.3 mph67%30.24 "Hg10 mi
4:53 PM36 °FSunny.6 mph64%30.24 "Hg10 mi
3:53 PM38 °FSunny.12 mph58%30.23 "Hg10 mi
2:53 PM40 °FSunny.13 mph58%30.23 "Hg10 mi
1:53 PM40 °FSunny.12 mph58%30.23 "Hg10 mi
12:53 PM37 °FSunny.8 mph65%30.26 "Hg10 mi
11:53 AM29 °FSunny.No wind89%30.31 "Hg10 mi
11:03 AM28 °FScattered clouds.6 mph93%30.26 "Hg9 mi
Weather by CustomWeather, © 2014

See weather overviewHow to use our weather pages